Change the Weather History Date:

Saturday, August 31, 2013

  Actual Average Record
Temperature  
Mean Temperature 89 °F -  
Max Temperature 103 °F 89 °F 103 °F (1985)
Min Temperature 75 °F 67 °F 54 °F (1968)
Cooling Degree Days 24    
Growing Degree Days 39 (Base 50)    
Moisture  
Dew Point 63 °F    
Average Humidity 44    
Maximum Humidity 64    
Minimum Humidity 27    
Precipitation  
Precipitation 0.00 in - - ()
Sea Level Pressure  
Sea Level Pressure 29.88 in    
Wind  
Wind Speed 0 mph (North)    
Max Wind Speed 0 mph    
Max Gust Speed -    
Visibility 10 miles    
Events      
Averages and records for this station are not official NWS values.
T = Trace of Precipitation, MM = Missing Value Source: NWS Daily Summary

Daily Weather History Graph

Daily Weather History Graph

Search for Another Location

Airport or City:

Trip Planner

Search our weather history database for the weather conditions in past years. The results will help you decide how hot, cold, wet, or windy it might be!

Date:

Astronomy

Aug. 31, 2013 Rise Set
Actual Time 7:05 AM CDT 8:02 PM CDT
Civil Twilight 6:38 AM CDT 8:28 PM CDT
Nautical Twilight 6:07 AM CDT 8:59 PM CDT
Astronomical Twilight 5:35 AM CDT 9:31 PM CDT
Moon 2:40 AM CDT (8/31) 4:56 PM CDT (8/31)
Length of Visible Light 13h 49m
Length of Day
12h 57m
Waning Crescent, 21% of the Moon is Illuminated
Aug 31
Waning Crescent
Sep 5
New
Sep 12
First Quarter
Sep 19
Full
Sep 26
Last Quarter

Hourly Weather History & Observations

Time (CDT) Temp. Heat Index Dew Point Humidity Pressure Visibility Wind Dir Wind Speed Gust Speed Precip Events Conditions
12:15 AM 83.5 °F 84.7 °F 63.5 °F 51% 29.91 in 10.0 mi Calm Calm - N/A   Clear
12:35 AM 82.4 °F 83.7 °F 63.5 °F 53% 29.91 in 10.0 mi Calm Calm - N/A   Clear
12:55 AM 81.3 °F 82.7 °F 63.9 °F 55% 29.91 in 10.0 mi Calm Calm - N/A   Clear
1:15 AM 80.8 °F 82.2 °F 63.5 °F 56% 29.91 in 10.0 mi Calm Calm - N/A   Clear
1:35 AM 80.2 °F 81.8 °F 63.5 °F 57% 29.91 in 10.0 mi Calm Calm - N/A   Clear
1:55 AM 79.5 °F - 63.5 °F 58% 29.91 in 10.0 mi Calm Calm - N/A   Clear
2:15 AM 79.3 °F - 63.3 °F 58% 29.91 in 10.0 mi Calm Calm - N/A   Clear
2:35 AM 78.4 °F - 63.3 °F 60% 29.91 in 10.0 mi Calm Calm - N/A   Clear
2:55 AM 77.7 °F - 63.1 °F 61% 29.91 in 10.0 mi Calm Calm - N/A   Clear
3:15 AM 76.3 °F - 63.3 °F 64% 29.91 in 10.0 mi Calm Calm - N/A   Clear
3:35 AM 76.8 °F - 63.3 °F 63% 29.90 in 10.0 mi Calm Calm - N/A   Clear
3:55 AM 77.5 °F - 63.0 °F 61% 29.90 in 10.0 mi Calm Calm - N/A   Clear
4:15 AM 77.5 °F - 63.0 °F 61% 29.90 in 10.0 mi Calm Calm - N/A   Clear
4:35 AM 75.7 °F - 62.6 °F 64% 29.90 in 10.0 mi Calm Calm - N/A   Clear
4:55 AM 76.3 °F - 62.2 °F 62% 29.90 in 10.0 mi Calm Calm - N/A   Clear
5:15 AM 76.6 °F - 62.2 °F 61% 29.90 in 10.0 mi Calm Calm - N/A   Clear
5:35 AM 77.7 °F - 62.4 °F 59% 29.90 in 10.0 mi Calm Calm - N/A   Clear
5:55 AM 77.2 °F - 61.9 °F 59% 29.90 in 10.0 mi Calm Calm - N/A   Clear
6:15 AM 77.0 °F - 62.1 °F 60% 29.90 in 10.0 mi Calm Calm - N/A   Clear
6:35 AM 78.4 °F - 61.7 °F 56% 29.90 in 10.0 mi Calm Calm - N/A   Clear
6:55 AM 79.2 °F - 61.2 °F 54% 29.90 in 10.0 mi Calm Calm - N/A   Clear
7:15 AM 77.7 °F - 61.3 °F 57% 29.91 in 10.0 mi Calm Calm - N/A   Clear
7:35 AM 76.6 °F - 61.7 °F 60% 29.92 in 10.0 mi Calm Calm - N/A   Clear
7:55 AM 77.7 °F - 62.2 °F 59% 29.92 in 10.0 mi Calm Calm - N/A   Clear
8:15 AM 78.6 °F - 62.8 °F 58% 29.92 in 10.0 mi Calm Calm - N/A   Clear
8:35 AM 80.6 °F 81.8 °F 62.8 °F 54% 29.92 in 10.0 mi Calm Calm - N/A   Clear
8:55 AM 82.9 °F 84.2 °F 63.5 °F 52% 29.92 in 10.0 mi Calm Calm - N/A   Clear
9:15 AM 86.7 °F 87.5 °F 63.0 °F 45% 29.92 in 10.0 mi Calm Calm - N/A   Scattered Clouds
9:35 AM 88.2 °F 89.0 °F 63.3 °F 43% 29.92 in 10.0 mi Calm Calm - N/A   Clear
9:55 AM 89.4 °F 90.5 °F 63.5 °F 42% 29.92 in 10.0 mi Calm Calm - N/A   Clear
10:15 AM 90.7 °F 91.7 °F 63.1 °F 40% 29.92 in 10.0 mi Calm Calm - N/A   Clear
10:35 AM 91.6 °F 93.1 °F 64.4 °F 40% 29.91 in 10.0 mi Calm Calm - N/A   Clear
10:55 AM 93.2 °F 95.3 °F 64.9 °F 39% 29.91 in 10.0 mi Calm Calm - N/A   Clear
11:15 AM 94.5 °F 97.5 °F 66.0 °F 39% 29.91 in 10.0 mi Calm Calm - N/A   Clear
11:35 AM 95.7 °F 98.2 °F 64.8 °F 36% 29.90 in 10.0 mi Calm Calm - N/A   Clear
11:55 AM 97.2 °F 99.1 °F 63.9 °F 33% 29.90 in 10.0 mi Calm Calm - N/A   Clear
12:15 PM 98.2 °F 100.4 °F 63.3 °F 32% 29.90 in 10.0 mi Calm Calm - N/A   Clear
12:35 PM 98.6 °F 101.0 °F 64.2 °F 32% 29.90 in 10.0 mi Calm Calm - N/A   Clear
12:55 PM 99.3 °F 102.3 °F 64.6 °F 32% 29.89 in 10.0 mi Calm Calm - N/A   Clear
1:15 PM 99.7 °F 102.3 °F 64.4 °F 31% 29.89 in 10.0 mi Calm Calm - N/A   Clear
1:35 PM 100.2 °F 102.7 °F 64.0 °F 30% 29.88 in 10.0 mi Calm Calm - N/A   Clear
1:55 PM 100.8 °F 103.6 °F 63.9 °F 30% 29.88 in 10.0 mi Calm Calm - N/A   Clear
2:15 PM 100.9 °F 104.0 °F 64.2 °F 30% 29.87 in 10.0 mi Calm Calm - N/A   Clear
2:35 PM 101.3 °F 104.0 °F 64.0 °F 29% 29.86 in 10.0 mi Calm Calm - N/A   Clear
2:55 PM 101.5 °F 104.3 °F 64.0 °F 29% 29.86 in 10.0 mi Calm Calm - N/A   Clear
3:15 PM 102.2 °F 105.5 °F 64.8 °F 29% 29.85 in 10.0 mi Calm Calm - N/A   Clear
3:35 PM 102.0 °F 105.2 °F 64.2 °F 29% 29.84 in 10.0 mi Calm Calm - N/A   Clear
3:55 PM 101.8 °F 104.3 °F 63.5 °F 28% 29.84 in 10.0 mi Calm Calm - N/A   Clear
4:15 PM 103.1 °F 105.8 °F 63.5 °F 27% 29.84 in 10.0 mi Calm Calm - N/A   Scattered Clouds
4:35 PM 102.0 °F 105.2 °F 64.0 °F 29% 29.83 in 10.0 mi Calm Calm - N/A   Clear
4:55 PM 102.2 °F 105.5 °F 64.2 °F 29% 29.83 in 10.0 mi Calm Calm - N/A   Clear
5:15 PM 102.0 °F 105.2 °F 64.4 °F 29% 29.83 in 10.0 mi Calm Calm - N/A   Clear
5:35 PM 100.6 °F 102.7 °F 62.6 °F 29% 29.82 in 10.0 mi Calm Calm - N/A   Clear
5:55 PM 101.3 °F 104.0 °F 63.7 °F 29% 29.82 in 10.0 mi Calm Calm - N/A   Clear
6:15 PM 100.0 °F 102.4 °F 63.7 °F 30% 29.81 in 10.0 mi Calm Calm - N/A   Scattered Clouds
6:35 PM 99.9 °F 102.7 °F 64.0 °F 31% 29.81 in 10.0 mi Calm Calm - N/A   Scattered Clouds
6:55 PM 98.6 °F 101.0 °F 64.4 °F 32% 29.81 in 10.0 mi Calm Calm - N/A   Clear
7:15 PM 97.0 °F 99.9 °F 64.9 °F 35% 29.82 in 10.0 mi Calm Calm - N/A   Clear
7:35 PM 95.4 °F 97.1 °F 63.9 °F 35% 29.82 in 10.0 mi Calm Calm - N/A   Clear
7:55 PM 93.6 °F 94.6 °F 63.0 °F 36% 29.82 in 10.0 mi Calm Calm - N/A   Clear
8:15 PM 91.6 °F 92.3 °F 62.8 °F 38% 29.83 in 10.0 mi Calm Calm - N/A   Clear
8:35 PM 90.5 °F 91.4 °F 63.1 °F 40% 29.83 in 10.0 mi Calm Calm - N/A   Clear
8:55 PM 89.2 °F 90.6 °F 63.9 °F 43% 29.84 in 10.0 mi Calm Calm - N/A   Clear
9:15 PM 87.6 °F 89.1 °F 64.2 °F 46% 29.84 in 10.0 mi Calm Calm - N/A   Clear
9:35 PM 86.7 °F 87.8 °F 63.7 °F 46% 29.84 in 10.0 mi Calm Calm - N/A   Clear
9:55 PM 87.1 °F 87.8 °F 62.6 °F 44% 29.84 in 10.0 mi Calm Calm - N/A   Clear
10:15 PM 87.1 °F 87.2 °F 61.7 °F 42% 29.84 in 10.0 mi Calm Calm - N/A   Clear
10:35 PM 87.1 °F 87.2 °F 61.3 °F 42% 29.84 in 10.0 mi Calm Calm - N/A   Clear
10:55 PM 87.3 °F 87.5 °F 61.7 °F 42% 29.84 in 10.0 mi Calm Calm - N/A   Clear
11:15 PM 86.2 °F 86.6 °F 61.9 °F 44% 29.84 in 10.0 mi Calm Calm - N/A   Clear
11:35 PM 85.3 °F 85.9 °F 62.1 °F 46% 29.83 in 10.0 mi Calm Calm - N/A   Clear
11:55 PM 84.6 °F 85.2 °F 62.4 °F 47% 29.84 in 10.0 mi Calm Calm - N/A   Clear